www.pogodaiklimat.ru
ПОГОДА в Атланте
Время
и дата
00:53 21.04
01:53 21.04
02:53 21.04
03:53 21.04
04:53 21.04
05:53 21.04
06:53 21.04
07:53 21.04
08:53 21.04
09:53 21.04
10:53 21.04
11:53 21.04
12:53 21.04
13:53 21.04
14:53 21.04
15:53 21.04
16:53 21.04
17:53 21.04
18:53 21.04
19:53 21.04
20:53 21.04
21:53 21.04
22:53 21.04
23:53 21.04
00:53 22.04
01:53 22.04
02:53 22.04
03:53 22.04
04:53 22.04
05:53 22.04
06:53 22.04
07:53 22.04
08:53 22.04
09:53 22.04
10:53 22.04
11:53 22.04
12:53 22.04
13:53 22.04
14:53 22.04
15:53 22.04
16:53 22.04
17:53 22.04
18:53 22.04
19:53 22.04
20:53 22.04
21:53 22.04
22:53 22.04
23:53 22.04
Ветер
(напр.,м/с)
Видим. Явления Облачность Т
(С)
Тd
(С)
f
(%)
Тe
(С)
Тes
(С)
Комфортность P
(гПа)
Po
(гПа)
Тmin
(С)
Tmax
(С)
R
(мм)
R24
(мм)
S
(см)
штиль 0 14 км ясно +11.1 +8.9 86 +10 +10 1014.1 984.9 +11.1 +19.4
штиль 0 14 км ясно +10.6 +8.3 86 +10 +10 1013.8 984.5
штиль 0 13 км ясно +9.4 +8.3 93 +9 +9 1013.3 984.2
штиль 0 13 км ясно +9.4 +8.3 93 +9 +9 1013.5 984.5
штиль 0 13 км ясно +8.9 +7.8 93 +8 +8 1013.6 984.5
штиль 0 11 км ясно +8.3 +7.8 97 +7 +7 1014.2 984.9
СЗ 2 13 км ясно +11.7 +7.8 77 +9 +9 1015.3 986.2 +7.8 +11.7
СЗ 3 14 км ясно +12.2 +7.2 71 +10 +10 1016.1 986.8
СЗ 2 16 км ясно +13.3 +6.1 62 +12 +14 1016.4 986.8
СЗ 4
{5}
16 км ясно +14.4 +5.0 53 +12 +14 1017.1 987.8
СЗ 4
{6}
16 км слабый дождь ясно +15.0 +4.4 49 +13 +15 1017.7 988.5
З 3
{4}
16 км слабый дождь ясно +15.0 +3.9 47 +14 +20 1017.8 988.5
СЗ 3
{5}
16 км слабый дождь ясно +14.4 +0.6 39 +13 +20 1017.7 988.1 +11.7 +15.6
СЗ 3
{5}
16 км слабый дождь ясно +15.6 0.0 34 +14 +20 1017.9 988.5
СЗ 4
{5}
16 км слабый дождь ясно +15.6 -1.7 30 +14 +16 1017.8 988.5
З 3
{5}
16 км слабый дождь ясно +14.4 -2.2 32 +13 +16 1017.9 988.5
СЗ 4
{4}
16 км слабый дождь ясно +14.4 -1.7 33 +12 +14 1018.3 988.8
СЗ 4
{5}
16 км слабый дождь ясно +13.3 -2.8 33 +11 +12 1018.6 989.1
СЗ 3
{4}
16 км слабый дождь ясно +11.7 -2.8 36 +9 +9 1019.1 989.5 +11.7 +15.6
СЗ 3 16 км слабый дождь ясно +10.0 -1.1 46 +7 +7 1019.8 990.1
СЗ 3
{4}
16 км слабый дождь ясно +8.9 -2.8 44 +6 +6 1020.7 991.1
СЗ 1 16 км слабый дождь ясно +8.3 -2.8 45 +6 +6 1021.9 992.1
СЗ 1 16 км слабый дождь ясно +6.7 -2.8 51 +4 +4 1022.6 992.8
СЗ 1 16 км слабый дождь ясно +5.0 -2.2 60 +2 +2 1022.9 993.1
штиль 0 16 км ясно +3.9 -1.1 70 +3 +3 1022.5 992.8 +3.9 +11.7
штиль 0 16 км ясно +2.8 0.0 82 +2 +2 1022.5 992.8
СЗ 1 14 км слабый снег ясно +2.8 -0.6 78 -1 -1 1022.3 992.4
З 1 16 км ясно +2.8 -1.1 75 0 0 1022.9 993.1
штиль 0 14 км ясно +0.6 -0.6 92 -1 -1 1022.8 992.8
штиль 0 13 км ясно 0.0 -0.6 96 -1 -1 1022.9 992.8
штиль 0 13 км ясно +1.7 +0.6 92 +1 +1 1024.1 994.1 +3.9
штиль 0 16 км ясно +7.8 -1.1 53 +7 +9 1024.5 994.7
С 1 16 км ясно +10.0 -5.6 33 +9 +12 1025.1 995.1
В 2 16 км ясно +12.2 -6.7 26 +11 +16 1025.0 995.1
СЗ 2 16 км ясно +13.3 -6.7 24 +12 +18 1024.7 994.7
16 км ясно +14.4 -7.8 21 +15 +37 опасность
простуды
1024.2 994.4
нст 1 16 км ясно +15.0 -5.6 24 +15 +34 опасность
простуды
1023.3 993.4 +1.7 +15.0
СЗ 2
{3}
16 км ясно +16.1 -5.6 22 +15 +25 1022.7 992.8
СЗ 1 16 км ясно +16.7 -5.6 21 +17 +31 опасность
простуды
1021.8 992.1
СЗ 1 16 км ясно +17.2 -5.0 22 +17 +29 опасность
простуды
1021.0 991.1
С 2 16 км ясно +17.8 -5.0 21 +17 +22 1020.6 990.8
С 1 16 км ясно +17.8 -4.4 22 +18 +22 1020.6 990.8
нст 1 16 км ясно +15.6 -2.8 28 +16 +17 1020.3 990.5 +15.0 +17.8
штиль 0 16 км ясно +10.0 +2.8 61 +10 +10 1020.9 991.1
штиль 0 16 км ясно +7.8 +2.8 71 +7 +7 1022.0 992.1
штиль 0 16 км ясно +6.1 +3.3 82 +5 +5 1021.8 992.1
штиль 0 16 км ясно +5.0 +3.3 89 +4 +4 1022.3 992.4
штиль 0 16 км ясно +4.4 +3.3 93 +3 +3 1022.2 992.4
Местоположение метеостанции Atlanta Regional Airport - Falcon Field: широта 33.3553 долгота -84.5669 высота над уровнем моря 246 м.
В архиве по умолчанию представлена погода в Атланте за последние 1-2 суток. Обновление информации о фактической погоде в базе происходит ежечасно! Архивные данные за месяц целиком и за предыдущие месяцы Вы можете получить, выбрав интересующий диапазон дат из раскрывающегося списка и нажав кнопку "Ввод!".
Внимание! Архив погоды МЕТАР в базе сайта по станциям, не включенным в климатический монитор, хранится не более 60 дней. Нет смысла пытаться выбрать более раннюю дату.
*Определитесь, кто Вы:
Внимание! Время в таблицах - местное (без учета летнего времени). Для получения всемирного времени необходимо вычесть поправку, которая равна -5 ч.
Смотрите также архив погоды в соседних городах и на ближайших метеорологических станциях:
Партнеры нашего сайта:      
Пояснения к столбцам:
  • Ветер - указаны скорость ветра в м/с - средняя за 10 мин, порывы в срок и между сроками (в фигурных скобках) и направление, откуда дует ветер: С - северный,
  • СВ - северо-восточный, В - восточный, ЮВ - юго-восточный, Ю - южный, ЮЗ - юго-западный, З - западный, СЗ - северо-западный.
  • Видимость - горизонтальная дальность видимости в метрах или километрах. При видимости от 1 до 10 км при отсутствии осадков обычно наблюдается дымка, при ухудшении видимости до 1 км и менее - туман. В сухую погоду видимость может ухудшаться дымом, пылью или мглою.
  • Явления - указаны атмосферные явления, наблюдавшиеся в срок или в последний час перед сроком; фигурными скобками обозначены явления, наблюдавшиеся между сроками (за 1-3 часа до срока); квадратными скобками обозначены град или гололедные отложения с указанием их диаметра в мм.
  • Облачность - указаны через наклонную черту общая и нижняя облачность в баллах и высота нижней границы облаков в метрах; квадратными скобками обозначены формы облаков: Ci - перистые, Cs - перисто-слоистые, Cc - перисто-кучевые, Ac - высококучевые, As - высокослоистые, Sc - слоисто-кучевые, Ns - слоисто-дождевые, Cu - кучевые, Cb - кучево-дождевые. Подробнее классификацию облаков см. в Атласе облаков (PDF).
  • T - Температура воздуха - температура, измеренная на высоте 2 м над землей.
  • Td - Температура точки росы - температура, при понижении до которой содержащийся в воздухе водяной пар достигнет насыщения.
  • f - Относительная влажность воздуха - влажноcть воздуха, измеренная на высоте 2 м над землей.
  • Te - Эффективная температура - температура, которую ощущает одетый по сезону человек в тени. Характеристика душности погоды. При расчете учитывается влияние влажности воздуха и скорости ветра на теплоощущения человека.
  • Tes - Эффективная температура на солнце - температура, которую ощущает человек, с поправкой на солнечный нагрев. Характеристика знойности погоды. Зависит от высоты солнца над горизонтом, облачности и скорости ветра. Ночью, в пасмурную погоду, а также при ветре 12 м/с и более поправка равна нулю.
  • P - Атмосферное давление - приведенное к уровню моря атмосферное давление.
  • Po - Атмосферное давление - измеренное на уровне метеостанции атмосферное давление.
  • Tmin - Минимальная температура - минимум температуры воздуха на высоте 2 м над землей.
  • Tmax - Максимальная температура - максимум температуры воздуха на высоте 2 м над землей.
  • R - Количество осадков - Количество выпавших осадков за период времени, мм. При наведении курсора мыши на число - период времени, за который выпало указанное количество осадков.
  • R24 - Количество осадков - Количество выпавших осадков за 24 часа, мм.
  • S - Снежный покров - Высота снежного покрова, см. При наведении курсора мыши на число - состояние снежного покрова и степень покрытия местности в баллах.